Jonesboro, AR

6:01 AM CDT on August 23, 2017 (GMT -0500)
Jonesboro Municipal

Weather History for KJBR - April, 2013

Change the Weather History Date:

Monday, April 15, 2013

  Actual Average Record
Temperature  
Mean Temperature 69 °F 60 °F  
Max Temperature 78 °F 70 °F 93 °F (1912)
Min Temperature 59 °F 49 °F 30 °F (2008)
Degree Days  
Heating Degree Days 0 7  
Month to date heating degree days 137 129  
Since 1 July heating degree days 3380 3549  
Cooling Degree Days 4 1  
Month to date cooling degree days 23 15  
Year to date cooling degree days 23 21  
Growing Degree Days 16 (Base 50)    
Moisture  
Dew Point 58 °F    
Average Humidity 82    
Maximum Humidity 88    
Minimum Humidity 73    
Precipitation  
Precipitation 0.00 in 0.16 in 3.37 in (1927)
Month to date precipitation 1.45 2.33  
Year to date precipitation 13.33 13.98  
Snow  
Snow 0.00 in - - ()
Month to date snowfall 0.0  
Snow Depth 0.00 in    
Sea Level Pressure  
Sea Level Pressure 29.86 in    
Wind  
Wind Speed 11 mph (SSE)    
Max Wind Speed 22 mph    
Max Gust Speed 33 mph    
Visibility 10 miles    
Events      
T = Trace of Precipitation, MM = Missing Value Source: NWS Daily Summary

Daily Weather History Graph

Daily Weather History Graph

Search for Another Location

Airport or City:

Trip Planner

Search our weather history database for the weather conditions in past years. The results will help you decide how hot, cold, wet, or windy it might be!

Date:

Astronomy

Apr. 15, 2013 Rise Set
Actual Time 6:29 AM CDT 7:36 PM CDT
Civil Twilight 6:03 AM CDT 8:02 PM CDT
Nautical Twilight 5:31 AM CDT 8:34 PM CDT
Astronomical Twilight 4:59 AM CDT 9:06 PM CDT
Moon 10:01 AM CDT (4/15) No Moon Set
Length of Visible Light 13h 59m
Length of Day
13h 06m
Waxing Crescent, 25% of the Moon is Illuminated
Apr 15
Waxing Crescent
Apr 18
First Quarter
Apr 25
Full
May 2
Last Quarter
May 9
New

Hourly Weather History & Observations

Time (CDT) Temp. Dew Point Humidity Pressure Visibility Wind Dir Wind Speed Gust Speed Precip Events Conditions
12:53 AM 60.1 °F 54.0 °F 80% 29.80 in 10.0 mi SSE 10.4 mph - N/A   Mostly Cloudy
1:53 AM 60.1 °F 54.0 °F 80% 29.81 in 10.0 mi SSE 9.2 mph - N/A   Overcast
2:17 AM 60.8 °F 53.6 °F 77% 29.82 in 10.0 mi South 8.1 mph - N/A   Overcast
2:53 AM 59.0 °F 54.0 °F 83% 29.81 in 10.0 mi South 8.1 mph - N/A   Overcast
3:07 AM 59.0 °F 53.6 °F 82% 29.82 in 10.0 mi SSE 8.1 mph - N/A   Mostly Cloudy
3:53 AM 59.0 °F 55.0 °F 87% 29.82 in 10.0 mi SSE 8.1 mph - N/A   Overcast
4:53 AM 59.0 °F 55.0 °F 87% 29.83 in 10.0 mi SSE 9.2 mph - N/A   Overcast
5:53 AM 59.0 °F 55.0 °F 87% 29.84 in 10.0 mi SSE 9.2 mph - N/A   Overcast
6:53 AM 59.0 °F 55.0 °F 87% 29.86 in 10.0 mi SSE 8.1 mph 31.1 mph N/A   Overcast
7:02 AM 59.0 °F 55.4 °F 88% 29.87 in 10.0 mi SSE 8.1 mph - N/A   Mostly Cloudy
7:15 AM 59.0 °F 55.4 °F 88% 29.87 in 10.0 mi SSE 6.9 mph - N/A   Scattered Clouds
7:39 AM 59.0 °F 55.4 °F 88% 29.89 in 10.0 mi South 6.9 mph - N/A   Mostly Cloudy
7:53 AM 60.1 °F 55.9 °F 86% 29.89 in 10.0 mi South 6.9 mph - N/A   Overcast
8:18 AM 60.8 °F 55.4 °F 82% 29.90 in 10.0 mi South 12.7 mph - N/A   Overcast
8:53 AM 61.0 °F 57.0 °F 87% 29.89 in 10.0 mi South 9.2 mph - N/A   Overcast
9:21 AM 62.6 °F 57.2 °F 82% 29.89 in 10.0 mi South 10.4 mph - N/A   Overcast
9:44 AM 64.4 °F 59.0 °F 83% 29.89 in 10.0 mi South 12.7 mph - N/A   Overcast
9:53 AM 64.9 °F 59.0 °F 81% 29.88 in 10.0 mi SSE 11.5 mph - N/A   Mostly Cloudy
10:00 AM 64.4 °F 59.0 °F 83% 29.89 in 10.0 mi South 12.7 mph - N/A   Mostly Cloudy
10:16 AM 66.2 °F 60.8 °F 83% 29.89 in 10.0 mi South 15.0 mph 31.1 mph N/A   Overcast
10:53 AM 68.0 °F 61.0 °F 78% 29.89 in 10.0 mi South 10.4 mph - N/A   Overcast
11:14 AM 69.8 °F 62.6 °F 78% 29.90 in 10.0 mi South 13.8 mph - N/A   Overcast
11:40 AM 71.6 °F 62.6 °F 73% 29.89 in 10.0 mi South 12.7 mph 21.9 mph N/A   Scattered Clouds
11:53 AM 72.0 °F 63.0 °F 73% 29.88 in 10.0 mi SSE 16.1 mph - N/A   Clear
12:53 PM 73.0 °F 64.0 °F 73% 29.87 in 10.0 mi South 18.4 mph - N/A   Scattered Clouds
1:12 PM 73.4 °F 64.4 °F 73% 29.86 in 10.0 mi South 17.3 mph - N/A   Mostly Cloudy